When you browse on this site, cookies collect data to enhance your experience and personalize the content and advertising you see.
Visit our Privacy Policy to learn more. By continuing to use the site, you agree to this use of cookies and data.
  • In Hungary
  • List of Countries
  • For 7 days
  • Water Temperature
  • Satellite Maps
  • Weather Map
  • News
  • Weather Widgets
  • user-avatar
    Login

    Hourly Weather Lany

    Today, 27 May, Monday

    Time Temperature Precipitation Wind Pressure Humidity
    00:00 +14°C° 0 mm 2 mps 721 mmHg 89%
    01:00 +13°C° 0 mm 2 mps 721 mmHg 91%
    02:00 +13°C° 0 mm 2 mps 720 mmHg 91%
    03:00 +13°C° 0 mm 2 mps 720 mmHg 91%
    04:00 +13°C° 0 mm 2 mps 720 mmHg 92%
    05:00 +14°C° 0 mm 2 mps 720 mmHg 86%
    06:00 +16°C° 0 mm 2 mps 720 mmHg 81%
    07:00 +18°C° 0 mm 2 mps 720 mmHg 76%
    08:00 +20°C° 0 mm 3 mps 721 mmHg 69%
    09:00 +21°C° 0 mm 3 mps 721 mmHg 62%
    10:00 +23°C° 0 mm 4 mps 721 mmHg 55%
    11:00 +24°C° 0.1 mm 3 mps 720 mmHg 53%
    12:00 +25°C° 0.1 mm 3 mps 720 mmHg 51%
    13:00 +25°C° 0.1 mm 3 mps 720 mmHg 49%
    14:00 +25°C° 0.2 mm 3 mps 719 mmHg 53%
    15:00 +24°C° 0.2 mm 2 mps 719 mmHg 57%
    16:00 +24°C° 0.2 mm 2 mps 719 mmHg 61%
    17:00 +23°C° 0 mm 2 mps 718 mmHg 64%
    18:00 +21°C° 0 mm 1 mps 718 mmHg 67%
    19:00 +20°C° 0 mm 1 mps 718 mmHg 70%
    20:00 +19°C° 0 mm 1 mps 718 mmHg 72%
    21:00 +19°C° 0 mm 1 mps 717 mmHg 74%
    22:00 +18°C° 0 mm 1 mps 717 mmHg 76%
    23:00 +18°C° 0.5 mm 1 mps 717 mmHg 81%

    Tomorrow, 28 May, Tuesday

    Time Temperature Precipitation Wind Pressure Humidity
    00:00 +16°C° 0.5 mm 1 mps 717 mmHg 85%
    01:00 +16°C° 0.5 mm 2 mps 716 mmHg 90%
    02:00 +15°C° 0.1 mm 1 mps 716 mmHg 91%
    03:00 +15°C° 0.1 mm 1 mps 716 mmHg 92%
    04:00 +14°C° 0.1 mm 1 mps 715 mmHg 93%
    05:00 +15°C° 0 mm 2 mps 715 mmHg 88%
    06:00 +17°C° 0 mm 2 mps 715 mmHg 84%
    07:00 +18°C° 0 mm 2 mps 715 mmHg 80%
    08:00 +19°C° 0.1 mm 3 mps 715 mmHg 74%
    09:00 +21°C° 0.1 mm 3 mps 715 mmHg 67%
    10:00 +22°C° 0.1 mm 3 mps 715 mmHg 61%
    11:00 +21°C° 0.7 mm 3 mps 715 mmHg 64%
    12:00 +21°C° 0.7 mm 3 mps 715 mmHg 67%
    13:00 +21°C° 0.7 mm 3 mps 714 mmHg 70%
    14:00 +21°C° 0.8 mm 2 mps 714 mmHg 70%
    15:00 +21°C° 0.8 mm 2 mps 714 mmHg 70%
    16:00 +21°C° 0.8 mm 2 mps 714 mmHg 70%
    17:00 +19°C° 1.7 mm 2 mps 714 mmHg 75%
    18:00 +19°C° 1.7 mm 1 mps 714 mmHg 79%
    19:00 +18°C° 1.7 mm 1 mps 714 mmHg 83%
    20:00 +16°C° 0.7 mm 2 mps 714 mmHg 86%
    21:00 +15°C° 0.7 mm 2 mps 715 mmHg 90%
    22:00 +13°C° 0.7 mm 3 mps 715 mmHg 93%
    23:00 +13°C° 0.3 mm 3 mps 716 mmHg 94%

    Day after tomorrow, 29 May, Wednesday

    Time Temperature Precipitation Wind Pressure Humidity
    00:00 +13°C° 0.3 mm 3 mps 716 mmHg 94%
    01:00 +12°C° 0.3 mm 3 mps 716 mmHg 95%
    02:00 +12°C° 0.3 mm 4 mps 717 mmHg 94%
    03:00 +11°C° 0.3 mm 4 mps 717 mmHg 94%
    04:00 +9°C° 0.3 mm 5 mps 718 mmHg 93%
    05:00 +9°C° 0.3 mm 5 mps 718 mmHg 93%
    06:00 +8°C° 0.3 mm 4 mps 719 mmHg 93%
    07:00 +8°C° 0.3 mm 4 mps 720 mmHg 93%
    08:00 +8°C° 0.2 mm 4 mps 720 mmHg 92%
    09:00 +8°C° 0.2 mm 4 mps 721 mmHg 91%
    10:00 +9°C° 0.2 mm 3 mps 721 mmHg 89%
    11:00 +9°C° 0.1 mm 3 mps 721 mmHg 87%
    12:00 +10°C° 0.1 mm 3 mps 722 mmHg 84%
    13:00 +12°C° 0.1 mm 2 mps 722 mmHg 81%
    14:00 +13°C° 0 mm 2 mps 722 mmHg 77%
    15:00 +14°C° 0 mm 2 mps 722 mmHg 73%
    16:00 +15°C° 0 mm 2 mps 723 mmHg 69%
    17:00 +15°C° 0 mm 2 mps 723 mmHg 71%
    18:00 +14°C° 0 mm 2 mps 723 mmHg 74%
    19:00 +14°C° 0 mm 2 mps 723 mmHg 77%
    20:00 +13°C° 0 mm 2 mps 723 mmHg 78%
    21:00 +12°C° 0 mm 2 mps 723 mmHg 79%
    22:00 +11°C° 0 mm 3 mps 724 mmHg 80%
    23:00 +10°C° 0.1 mm 3 mps 724 mmHg 82%

    30 May, Thursday

    Time Temperature Precipitation Wind Pressure Humidity
    00:00 +10°C° 0.1 mm 3 mps 724 mmHg 84%
    01:00 +10°C° 0.1 mm 3 mps 724 mmHg 86%
    02:00 +9°C° 0.9 mm 2 mps 724 mmHg 89%
    03:00 +9°C° 0.9 mm 2 mps 724 mmHg 91%
    04:00 +9°C° 0.9 mm 2 mps 724 mmHg 94%
    05:00 +9°C° 1.4 mm 2 mps 724 mmHg 94%
    06:00 +9°C° 1.4 mm 2 mps 725 mmHg 94%
    07:00 +9°C° 1.4 mm 2 mps 725 mmHg 95%
    08:00 +9°C° 0.3 mm 2 mps 725 mmHg 93%
    09:00 +9°C° 0.3 mm 2 mps 725 mmHg 91%
    10:00 +9°C° 0.3 mm 2 mps 725 mmHg 89%
    11:00 +10°C° 0 mm 2 mps 725 mmHg 81%
    12:00 +13°C° 0 mm 2 mps 725 mmHg 73%
    13:00 +14°C° 0 mm 2 mps 725 mmHg 66%
    14:00 +15°C° 0 mm 1 mps 725 mmHg 64%
    15:00 +16°C° 0 mm 1 mps 725 mmHg 61%
    16:00 +16°C° 0 mm 1 mps 725 mmHg 59%
    17:00 +15°C° 0 mm 1 mps 725 mmHg 64%
    18:00 +14°C° 0 mm 1 mps 725 mmHg 69%
    19:00 +13°C° 0 mm 1 mps 725 mmHg 74%
    20:00 +12°C° 0 mm 1 mps 725 mmHg 77%
    21:00 +11°C° 0 mm 1 mps 725 mmHg 80%
    22:00 +9°C° 0 mm 0 mps 725 mmHg 84%
    23:00 +9°C° 0 mm 0 mps 725 mmHg 84%

    31 May, Friday

    Time Temperature Precipitation Wind Pressure Humidity
    00:00 +9°C° 0 mm 0 mps 725 mmHg 85%
    01:00 +8°C° 0 mm 0 mps 725 mmHg 86%
    02:00 +8°C° 0 mm 0 mps 725 mmHg 86%
    03:00 +8°C° 0 mm 0 mps 724 mmHg 87%
    04:00 +8°C° 0 mm 0 mps 724 mmHg 88%
    05:00 +10°C° 0 mm 0 mps 724 mmHg 82%
    06:00 +12°C° 0 mm 0 mps 724 mmHg 77%
    07:00 +14°C° 0 mm 0 mps 724 mmHg 71%
    08:00 +15°C° 0 mm 0 mps 724 mmHg 65%
    09:00 +17°C° 0 mm 0 mps 724 mmHg 58%
    10:00 +18°C° 0 mm 0 mps 724 mmHg 52%
    11:00 +21°C° 0 mm 1 mps 724 mmHg 49%
    12:00 +22°C° 0 mm 1 mps 723 mmHg 47%
    13:00 +22°C° 0 mm 1 mps 723 mmHg 44%
    14:00 +22°C° 0 mm 1 mps 723 mmHg 45%
    15:00 +22°C° 0 mm 1 mps 723 mmHg 47%
    16:00 +22°C° 0 mm 1 mps 723 mmHg 48%
    17:00 +21°C° 0 mm 1 mps 723 mmHg 56%
    18:00 +19°C° 0 mm 1 mps 723 mmHg 65%
    19:00 +16°C° 0 mm 1 mps 722 mmHg 73%
    20:00 +16°C° 0.1 mm 2 mps 723 mmHg 78%
    21:00 +15°C° 0.1 mm 2 mps 723 mmHg 82%
    22:00 +15°C° 0.1 mm 2 mps 723 mmHg 86%
    23:00 +13°C° 0.9 mm 3 mps 723 mmHg 89%

    1 June, Saturday

    Time Temperature Precipitation Wind Pressure Humidity
    00:00 +13°C° 0.9 mm 3 mps 723 mmHg 92%
    01:00 +13°C° 0.9 mm 4 mps 723 mmHg 95%
    02:00 +12°C° 1.7 mm 5 mps 723 mmHg 94%
    03:00 +10°C° 1.7 mm 6 mps 723 mmHg 93%
    04:00 +9°C° 1.7 mm 7 mps 723 mmHg 93%
    05:00 +9°C° 1.2 mm 7 mps 724 mmHg 93%
    06:00 +9°C° 1.2 mm 6 mps 724 mmHg 93%
    07:00 +8°C° 1.2 mm 6 mps 725 mmHg 93%
    08:00 +9°C° 0.4 mm 6 mps 725 mmHg 92%
    09:00 +9°C° 0.4 mm 6 mps 726 mmHg 92%
    10:00 +9°C° 0.4 mm 6 mps 726 mmHg 91%
    11:00 +9°C° 0.2 mm 6 mps 726 mmHg 90%
    12:00 +9°C° 0.2 mm 5 mps 726 mmHg 89%
    13:00 +9°C° 0.2 mm 5 mps 726 mmHg 87%
    14:00 +10°C° 0.1 mm 5 mps 726 mmHg 85%
    15:00 +12°C° 0.1 mm 4 mps 727 mmHg 82%
    16:00 +12°C° 0.1 mm 4 mps 727 mmHg 80%
    17:00 +12°C° 0.1 mm 4 mps 727 mmHg 79%
    18:00 +11°C° 0.1 mm 4 mps 727 mmHg 79%
    19:00 +11°C° 0.1 mm 3 mps 727 mmHg 79%
    20:00 +11°C° 0.1 mm 3 mps 727 mmHg 78%
    21:00 +10°C° 0.1 mm 3 mps 727 mmHg 77%
    22:00 +9°C° 0.1 mm 3 mps 727 mmHg 77%
    23:00 +9°C° 0.1 mm 3 mps 727 mmHg 77%
    Show more